GFSNW_prec_kuchsnow_231.txt.gz
Snowfall_Accumulation
0.0 0.0 0.0 0.0 0.0 0.0 0.0 0.0 11.6 0.0 0.0 6.2 4.6 3.8 0.1 0.0 0.1 0.0 0.6 1.2 2.5 6.3 3.6 4.8 4.4 1.3 1.5 0.0 0.0 0.0 0.0 5.0 6.9 0.6 0.0 0.0 0.0 0.0 0.1 10.0 5.7 5.9 16.7 21.7
0.0 0.0 0.0 0.0 0.0 0.0 0.0 1.9 1.7 0.0 0.0 12.6 7.4 0.8 0.0 0.0 0.0 0.0 1.1 1.6 1.8 3.0 6.9 10.7 8.0 1.6 0.0 0.0 0.0 0.0 0.0 4.0 3.9 2.0 0.0 0.0 0.0 0.0 0.0 1.0 3.8 11.3 25.8 18.6
0.0 0.0 0.0 0.0 0.0 0.0 0.0 6.5 27.4 0.0 0.0 1.0 1.3 2.8 2.5 1.6 0.0 0.0 0.1 1.1 2.4 3.8 5.1 3.8 7.1 1.7 0.0 0.0 0.0 0.0 0.0 1.5 4.5 8.9 5.6 2.0 1.7 0.2 0.2 2.5 18.2 12.0 14.8 11.9
0.0 0.0 0.0 0.0 0.0 0.0 0.0 9.0 14.1 0.2 23.4 8.6 2.5 0.9 1.8 1.8 1.9 0.0 0.3 3.7 1.5 2.9 10.2 4.8 4.4 1.7 0.0 0.0 0.0 0.0 0.1 5.5 4.4 2.8 3.2 1.6 4.9 4.4 4.0 4.8 4.5 13.9 12.7 6.1
0.0 0.0 0.0 0.0 0.0 0.0 0.0 32.8 7.5 0.7 2.2 0.5 5.7 5.5 4.4 1.1 1.2 3.7 3.5 1.0 0.1 0.4 3.3 1.9 4.4 1.4 0.6 1.4 0.0 0.0 0.1 4.1 5.7 13.6 2.8 1.8 9.2 8.9 5.8 2.6 2.9 3.7 2.1 4.4
0.0 0.0 0.0 0.0 0.0 0.0 4.1 0.0 0.0 1.4 5.9 3.8 6.9 6.4 2.9 1.7 0.7 0.3 0.1 0.3 1.1 1.0 0.3 0.0 0.0 0.0 0.2 0.0 0.7 1.1 2.3 4.2 6.4 13.1 2.8 1.6 7.9 9.9 5.5 2.4 1.4 0.9 1.7 2.1
0.0 0.0 0.0 0.0 0.0 0.0 0.0 0.0 0.0 7.7 14.0 3.7 1.5 0.7 0.0 0.7 0.1 1.5 0.0 0.0 1.2 0.0 0.0 0.0 0.0 0.1 0.0 0.0 0.0 0.0 1.7 3.1 8.0 12.4 3.7 21.8 9.0 2.2 1.9 1.9 1.4 0.7 0.8 1.5
0.0 0.0 0.0 0.0 0.0 0.0 0.0 0.0 0.0 5.8 9.9 1.1 0.6 0.2 0.0 0.0 0.0 1.2 0.0 0.0 0.0 0.0 0.0 5.2 4.5 0.5 0.1 0.0 0.0 0.3 0.2 2.7 13.7 14.4 5.1 3.7 1.8 1.0 2.2 1.9 2.3 1.3 2.9 1.0
0.0 0.0 0.0 0.0 0.0 0.0 0.0 0.0 0.0 1.0 8.7 1.9 0.0 0.7 0.1 2.6 2.6 2.8 0.8 0.0 0.0 0.0 3.9 8.2 11.1 3.4 0.7 0.3 0.3 0.1 0.4 1.1 12.9 13.5 17.4 9.3 0.7 0.1 0.0 0.0 2.6 1.5 4.2 3.7
0.0 0.0 0.0 0.0 0.0 0.0 0.0 0.0 0.0 0.0 11.5 0.5 0.0 0.9 1.0 0.0 1.7 3.3 1.8 1.4 0.8 0.2 6.9 12.9 6.9 3.4 2.1 4.2 1.7 0.7 2.2 4.9 18.7 15.9 24.4 3.7 0.2 0.6 0.4 7.3 8.2 4.0 2.8 2.5
0.0 0.0 0.0 0.0 0.0 0.0 0.0 0.0 0.0 0.0 8.1 0.0 0.0 0.0 0.2 0.4 1.1 5.3 2.9 4.3 3.6 5.8 14.0 9.2 6.3 2.7 0.4 0.9 0.0 0.3 1.2 7.6 7.0 8.9 21.7 13.0 0.3 1.2 6.0 5.7 3.7 1.5 1.2 0.7
0.0 0.0 0.0 0.0 0.0 0.0 0.0 0.0 0.0 0.0 0.6 0.5 0.0 0.0 0.0 0.0 0.0 0.8 2.6 1.3 0.6 1.8 7.2 6.8 3.9 4.2 1.8 1.3 5.7 0.2 5.1 3.6 6.9 5.3 4.0 1.6 1.1 4.2 2.0 2.0 4.6 2.0 0.9 0.4
0.0 0.0 0.0 0.0 0.0 0.0 0.0 0.0 0.0 0.0 4.4 7.0 3.3 2.8 0.0 0.0 0.0 0.0 1.9 0.1 0.5 1.7 0.1 4.6 5.3 6.1 0.3 4.0 1.6 2.2 1.4 0.0 4.4 3.7 3.4 3.8 1.8 0.3 0.2 0.5 1.2 0.7 0.6 0.5
0.0 0.0 0.0 0.0 0.0 0.0 0.0 0.0 0.0 0.0 0.5 19.6 10.5 0.0 0.7 0.0 0.0 0.0 0.0 0.0 0.0 0.0 0.0 4.0 3.5 3.5 0.0 2.5 2.4 2.4 2.0 2.8 7.9 9.8 5.1 2.5 0.8 0.9 0.9 0.9 0.5 0.3 1.2 1.6
0.0 0.0 0.0 0.0 0.0 0.0 0.0 0.0 0.0 0.0 0.7 18.2 8.3 0.7 0.0 0.0 0.0 0.0 0.0 0.0 0.0 0.0 3.2 5.0 3.8 0.4 0.6 0.3 1.0 2.1 0.7 4.4 12.8 16.6 6.8 5.9 3.5 1.5 1.1 1.4 2.1 1.3 0.5 0.0
0.0 0.0 0.0 0.0 0.0 0.0 0.0 23.9 0.0 0.0 0.0 9.5 14.4 2.1 2.0 0.0 0.0 0.0 0.0 0.0 0.0 0.2 2.1 3.1 0.5 0.0 0.7 8.1 6.0 1.9 1.0 0.9 2.1 6.3 4.7 5.3 4.0 2.5 1.6 1.4 0.8 0.0 0.0 0.0
0.0 0.0 0.0 0.0 0.0 0.0 0.4 2.4 0.0 0.0 0.0 10.1 16.8 3.0 1.1 0.5 0.7 2.1 0.0 0.6 0.3 0.2 2.3 2.2 0.2 0.0 1.9 10.0 8.0 3.4 2.0 2.2 2.5 2.6 3.4 3.8 1.7 1.4 0.4 0.0 0.0 0.0 0.0 0.0
0.0 0.0 0.0 0.0 0.0 0.0 0.0 0.0 0.0 0.0 0.0 1.7 14.8 9.2 1.9 0.0 2.5 6.0 1.1 2.7 2.0 3.0 1.7 1.3 0.4 0.5 1.5 7.3 0.5 0.0 0.2 0.4 1.3 1.2 0.4 1.0 0.5 0.0 0.0 0.0 0.0 0.0 0.0 0.1
0.0 0.0 0.0 0.0 0.0 3.6 0.0 0.0 0.0 0.0 0.8 11.1 5.8 6.5 13.7 0.0 0.9 2.2 5.1 3.6 13.4 0.0 4.1 0.6 1.3 4.3 11.9 5.1 0.6 0.1 0.3 0.7 0.4 0.0 0.1 0.0 0.3 0.0 0.0 0.0 0.0 0.2 1.9 1.2
0.0 0.0 4.2 47.5 1.5 0.0 0.0 0.0 7.7 10.8 4.2 2.1 4.4 0.7 4.0 0.1 3.2 8.0 9.0 7.1 10.2 11.6 2.5 0.2 5.3 7.6 4.1 1.2 0.2 0.4 0.5 0.3 0.0 0.0 0.0 0.0 0.3 0.4 0.3 0.9 1.2 2.0 2.1 1.2
0.0 17.1 21.5 0.0 0.0 0.0 5.2 32.2 24.3 13.5 12.2 1.8 0.8 0.3 7.5 1.7 9.2 6.9 1.7 9.1 7.1 13.5 10.1 8.2 10.8 13.7 10.6 2.0 0.8 0.1 0.0 0.0 0.0 0.0 0.0 0.2 0.5 1.1 2.5 1.8 0.3 0.5 1.1 1.9
0.0 0.0 0.0 0.6 6.6 15.6 26.2 19.8 8.9 3.3 2.8 0.9 0.9 1.2 2.5 6.3 1.7 8.0 7.4 10.2 10.2 11.3 5.3 13.2 15.0 9.5 1.4 0.3 0.5 0.3 0.2 0.1 0.1 0.3 0.4 0.5 1.2 1.3 1.9 1.8 2.3 2.5 2.5 3.4
0.0 3.8 12.7 15.3 22.5 31.8 20.0 15.3 8.0 6.2 4.6 2.4 2.8 4.9 2.4 4.0 4.7 12.4 6.9 9.2 14.4 4.4 18.2 13.6 10.5 6.0 3.0 2.7 3.1 1.3 0.6 0.2 0.3 0.6 0.5 0.7 1.2 1.2 1.5 2.3 2.7 2.8 3.6 5.3
8.8 20.2 26.7 24.3 21.9 12.7 12.4 6.6 5.2 4.9 4.0 2.3 3.6 1.8 2.2 2.0 9.4 12.2 14.6 12.9 10.4 20.5 13.6 16.6 12.7 8.1 5.8 3.5 2.7 2.0 3.6 2.4 2.9 3.3 3.5 3.9 4.7 4.9 6.4 7.6 8.8 8.5 11.9 15.4
13.3 11.9 18.5 14.2 11.1 9.2 7.8 5.4 3.4 2.2 2.2 2.4 3.3 3.8 3.8 9.9 13.9 9.7 8.8 11.2 12.6 9.6 14.9 13.8 9.6 6.9 5.4 5.1 4.9 5.5 6.4 6.6 7.2 7.4 7.6 8.9 9.0 8.3 11.0 11.7 11.6 10.1 11.1 11.7
6.0 7.4 12.2 8.4 7.1 9.8 7.3 6.9 6.8 3.4 4.4 3.7 6.9 11.7 13.6 14.7 8.4 6.3 7.5 6.4 11.5 15.5 12.1 7.0 5.8 6.3 6.3 7.0 7.4 8.3 8.4 7.9 7.9 7.9 7.4 7.8 8.6 8.1 9.2 9.4 9.7 9.7 8.2 8.5
5.2 10.7 9.6 9.8 8.1 10.6 9.9 7.7 5.9 3.1 3.5 10.4 9.4 10.2 9.9 5.4 7.9 10.2 9.8 18.8 19.6 11.9 11.3 10.4 8.6 9.0 10.1 9.5 9.5 9.9 9.5 8.9 8.4 8.1 7.7 8.2 8.0 6.1 4.3 6.3 9.0 6.7 6.9 6.5

GFSNW_prec_kuchsnow_234.txt.gz
Snowfall_Accumulation
0.0 0.0 0.0 0.0 0.0 0.0 0.0 0.0 11.6 0.0 0.0 6.2 4.6 3.8 0.1 0.0 0.1 0.0 0.6 1.2 2.5 6.3 3.6 4.8 4.4 1.3 1.5 0.0 0.0 0.0 0.0 5.0 6.9 0.6 0.0 0.0 0.0 0.0 0.1 10.0 5.7 5.9 16.7 21.7
0.0 0.0 0.0 0.0 0.0 0.0 0.0 1.9 1.7 0.0 0.0 12.6 7.4 0.8 0.0 0.0 0.0 0.0 1.1 1.6 1.8 3.0 6.9 10.7 8.0 1.6 0.0 0.0 0.0 0.0 0.0 4.0 3.9 2.0 0.0 0.0 0.0 0.0 0.0 1.0 3.8 11.3 25.8 18.6
0.0 0.0 0.0 0.0 0.0 0.0 0.0 6.5 27.4 0.0 0.0 1.0 1.3 2.8 2.5 1.6 0.0 0.0 0.1 1.1 2.4 3.8 5.1 3.8 7.1 1.7 0.0 0.0 0.0 0.0 0.0 1.5 4.5 8.9 5.6 2.0 1.7 0.2 0.2 2.5 18.2 12.0 14.8 11.9
0.0 0.0 0.0 0.0 0.0 0.0 0.0 9.0 14.1 0.2 23.4 8.6 2.5 0.9 1.8 1.8 1.9 0.0 0.3 3.7 1.5 2.9 10.2 4.8 4.4 1.7 0.0 0.0 0.0 0.0 0.1 5.5 4.4 2.8 3.2 1.6 4.9 4.4 4.0 4.8 4.5 13.9 12.7 6.1
0.0 0.0 0.0 0.0 0.0 0.0 0.0 32.8 7.5 0.7 2.2 0.5 5.7 5.5 4.4 1.1 1.2 3.7 3.5 1.0 0.1 0.4 3.3 1.9 4.4 1.4 0.6 1.4 0.0 0.0 0.1 4.1 5.7 13.6 2.8 1.8 9.2 8.9 5.8 2.6 2.9 3.7 2.1 4.4
0.0 0.0 0.0 0.0 0.0 0.0 4.1 0.0 0.0 1.4 5.9 3.8 6.9 6.4 2.9 1.7 0.7 0.3 0.1 0.3 1.1 1.0 0.3 0.0 0.0 0.0 0.2 0.0 0.7 1.1 2.3 4.2 6.4 13.1 2.8 1.6 7.9 9.9 5.5 2.4 1.4 0.9 1.7 2.1
0.0 0.0 0.0 0.0 0.0 0.0 0.0 0.0 0.0 7.7 14.0 3.7 1.5 0.7 0.0 0.7 0.1 1.5 0.0 0.0 1.2 0.0 0.0 0.0 0.0 0.1 0.0 0.0 0.0 0.0 1.7 3.1 8.0 12.4 3.7 21.9 9.0 2.2 1.9 1.9 1.4 0.7 0.8 1.5
0.0 0.0 0.0 0.0 0.0 0.0 0.0 0.0 0.0 5.8 9.9 1.1 0.6 0.2 0.0 0.0 0.0 1.2 0.0 0.0 0.0 0.0 0.0 5.2 4.5 0.5 0.1 0.0 0.0 0.3 0.2 2.7 13.7 14.5 5.2 3.7 1.8 1.0 2.2 1.9 2.3 1.3 2.9 1.0
0.0 0.0 0.0 0.0 0.0 0.0 0.0 0.0 0.0 1.0 8.7 1.9 0.0 0.7 0.1 2.6 2.6 2.8 0.8 0.0 0.0 0.0 3.9 8.2 11.1 3.6 0.7 0.3 0.3 0.1 0.4 1.1 12.9 13.9 17.8 9.5 0.7 0.1 0.0 0.0 2.6 1.5 4.2 3.7
0.0 0.0 0.0 0.0 0.0 0.0 0.0 0.0 0.0 0.0 11.5 0.5 0.0 0.9 1.0 0.0 1.7 3.3 1.8 1.4 0.8 0.2 6.9 12.9 6.9 3.4 2.1 4.2 1.7 0.7 2.2 5.0 18.8 16.0 25.0 3.7 0.2 0.6 0.4 7.5 8.2 4.0 2.8 2.5
0.0 0.0 0.0 0.0 0.0 0.0 0.0 0.0 0.0 0.0 8.1 0.0 0.0 0.0 0.2 0.4 1.1 5.3 2.9 4.3 3.6 5.8 14.0 9.2 6.3 2.7 0.4 0.9 0.0 0.3 1.2 8.1 7.5 9.2 22.7 13.4 0.3 1.2 6.0 5.7 3.7 1.5 1.2 0.7
0.0 0.0 0.0 0.0 0.0 0.0 0.0 0.0 0.0 0.0 0.6 0.5 0.0 0.0 0.0 0.0 0.0 0.8 2.6 1.3 0.6 1.8 7.2 6.8 3.9 4.2 1.8 1.3 5.8 0.2 5.5 3.6 6.9 5.3 4.2 1.6 1.1 4.2 2.0 2.0 4.6 2.0 0.9 0.4
0.0 0.0 0.0 0.0 0.0 0.0 0.0 0.0 0.0 0.0 4.4 7.0 3.3 2.8 0.0 0.0 0.0 0.0 1.9 0.1 0.5 1.7 0.1 4.6 5.3 6.1 0.3 4.3 1.9 2.2 1.4 0.0 4.4 3.7 3.4 3.8 1.8 0.3 0.2 0.5 1.2 0.7 0.6 0.5
0.0 0.0 0.0 0.0 0.0 0.0 0.0 0.0 0.0 0.0 0.5 19.6 10.5 0.0 0.7 0.0 0.0 0.0 0.0 0.0 0.0 0.0 0.0 4.0 3.5 3.5 0.0 2.5 2.4 2.4 2.0 2.8 8.3 10.2 5.1 2.5 0.8 0.9 0.9 0.9 0.5 0.3 1.2 1.6
0.0 0.0 0.0 0.0 0.0 0.0 0.0 0.0 0.0 0.0 0.7 18.2 8.3 0.7 0.0 0.0 0.0 0.0 0.0 0.0 0.0 0.0 3.2 5.0 3.8 0.4 0.6 0.8 1.3 2.3 0.7 4.4 13.0 16.8 6.8 5.9 3.5 1.5 1.1 1.4 2.1 1.3 0.5 0.0
0.0 0.0 0.0 0.0 0.0 0.0 0.0 23.9 0.0 0.0 0.0 9.5 14.4 2.1 2.0 0.0 0.0 0.0 0.0 0.0 0.0 0.2 2.1 3.1 1.3 0.0 0.7 9.3 6.7 1.9 1.0 0.9 2.1 6.3 4.7 5.3 4.0 2.5 1.6 1.4 0.8 0.0 0.0 0.0
0.0 0.0 0.0 0.0 0.0 0.0 0.4 2.4 0.0 0.0 0.0 10.1 16.8 3.0 1.1 0.5 0.7 2.1 0.0 0.6 0.3 0.2 2.3 3.4 1.0 0.4 2.4 10.9 8.3 3.4 2.0 2.2 2.5 2.6 3.4 3.8 1.7 1.4 0.4 0.0 0.0 0.0 0.0 0.0
0.0 0.0 0.0 0.0 0.0 0.0 0.0 0.0 0.0 0.0 0.0 1.7 14.8 9.2 1.9 0.0 2.5 6.4 1.1 2.7 2.8 4.1 2.9 2.2 1.1 1.1 1.9 7.6 0.5 0.0 0.2 0.4 1.3 1.2 0.4 1.0 0.5 0.0 0.0 0.0 0.0 0.0 0.0 0.1
0.0 0.0 0.0 0.0 0.0 3.6 0.0 0.0 0.0 0.0 0.8 11.2 5.8 6.5 13.7 0.0 0.9 2.4 5.7 3.6 14.8 0.8 5.1 1.1 1.5 4.9 12.2 5.1 0.6 0.1 0.3 0.7 0.4 0.0 0.1 0.0 0.3 0.0 0.0 0.0 0.0 0.2 1.9 1.2
0.0 0.0 4.2 51.6 1.5 0.0 0.0 0.0 7.7 10.8 4.2 2.1 4.4 0.7 4.0 0.1 3.2 8.0 9.0 7.1 11.0 12.6 2.8 0.2 5.4 7.7 4.1 1.2 0.2 0.4 0.5 0.3 0.0 0.0 0.0 0.0 0.3 0.4 0.3 0.9 1.2 2.0 2.1 1.2
0.0 19.6 23.4 0.0 0.0 0.0 5.2 33.2 26.5 16.4 13.9 1.8 0.9 0.3 7.5 1.7 9.2 6.9 1.7 9.9 7.7 14.3 10.2 8.2 10.9 13.7 10.6 2.0 0.8 0.1 0.0 0.0 0.0 0.0 0.0 0.2 0.5 1.1 2.5 1.8 0.3 0.5 1.1 1.9
0.0 0.0 0.0 0.6 6.6 16.9 28.8 21.8 8.9 3.3 3.6 1.1 0.9 1.2 2.5 6.3 1.7 8.7 8.1 10.8 10.6 11.8 5.3 13.2 15.0 9.5 1.4 0.3 0.5 0.3 0.2 0.1 0.1 0.3 0.4 0.5 1.2 1.3 1.9 1.8 2.3 2.5 2.5 3.4
0.0 3.8 13.4 15.3 23.8 33.8 21.4 15.3 8.3 6.2 4.9 2.4 2.8 4.9 2.4 4.4 4.7 12.8 6.9 9.2 14.7 4.5 18.2 13.6 10.5 6.0 3.0 2.7 3.1 1.3 0.6 0.2 0.3 0.6 0.5 0.7 1.2 1.2 1.5 2.3 2.7 2.8 3.6 5.3
9.5 20.2 27.9 24.3 22.5 12.7 12.4 6.6 5.2 4.9 4.0 2.3 3.6 1.8 2.2 2.0 9.5 12.2 14.6 12.9 10.4 20.5 13.6 16.6 12.7 8.1 5.8 3.5 2.7 2.0 3.6 2.4 2.9 3.3 3.5 3.9 4.7 4.9 6.4 7.6 8.8 8.5 11.9 15.4
13.7 12.1 18.7 14.2 11.2 9.2 7.8 5.4 3.4 2.2 2.2 2.4 3.3 3.8 3.8 9.9 14.2 9.7 8.8 11.2 12.6 9.6 14.9 13.8 9.6 6.9 5.4 5.1 4.9 5.5 6.4 6.6 7.2 7.4 7.6 8.9 9.0 8.3 11.0 11.7 11.6 10.1 11.1 11.7
6.0 7.4 12.2 8.4 7.1 9.8 7.3 6.9 6.8 3.4 4.4 3.7 6.9 12.3 14.5 15.4 8.7 6.4 7.5 6.4 11.5 15.5 12.1 7.0 5.8 6.3 6.3 7.0 7.4 8.3 8.4 7.9 7.9 7.9 7.4 7.8 8.6 8.1 9.2 9.4 9.7 9.7 8.2 8.5
5.3 10.7 9.6 9.8 8.1 10.6 9.9 7.7 5.9 3.1 3.5 10.4 9.7 10.7 10.2 5.4 7.9 10.2 9.8 18.8 19.6 11.9 11.3 10.4 8.6 9.0 10.1 9.5 9.5 9.9 9.5 8.9 8.4 8.1 7.7 8.2 8.0 6.1 4.3 6.3 9.0 6.7 6.9 6.5

GFSNW_prec_kuchsnow_237.txt.gz
Snowfall_Accumulation
0.0 0.0 0.0 0.0 0.0 0.0 0.0 0.0 11.6 0.0 0.0 6.2 4.6 3.8 0.1 0.0 0.1 0.0 0.6 1.2 2.5 6.3 3.6 4.8 4.4 1.3 1.5 0.0 0.0 0.0 0.0 5.0 6.9 0.6 0.0 0.0 0.0 0.0 0.1 10.0 5.7 5.9 16.7 21.7
0.0 0.0 0.0 0.0 0.0 0.0 0.0 1.9 1.7 0.0 0.0 12.6 7.4 0.8 0.0 0.0 0.0 0.0 1.1 1.6 1.8 3.0 6.9 10.7 8.0 1.6 0.0 0.0 0.0 0.0 0.0 4.0 3.9 2.0 0.0 0.0 0.0 0.0 0.0 1.0 3.8 11.3 25.8 18.6
0.0 0.0 0.0 0.0 0.0 0.0 0.0 6.5 27.4 0.0 0.0 1.0 1.3 2.8 2.5 1.6 0.0 0.0 0.1 1.1 2.4 3.8 5.1 3.8 7.1 1.7 0.0 0.0 0.0 0.0 0.0 1.5 4.5 9.1 5.6 2.0 1.7 0.2 0.2 2.5 18.2 12.0 14.8 11.9
0.0 0.0 0.0 0.0 0.0 0.0 0.0 9.0 14.1 0.2 23.4 8.6 2.5 0.9 1.8 1.8 1.9 0.0 0.3 3.7 1.5 2.9 10.2 4.8 4.4 1.7 0.0 0.0 0.0 0.0 0.1 5.5 4.4 2.8 3.2 1.6 4.9 4.4 4.0 4.8 4.5 13.9 12.7 6.1
0.0 0.0 0.0 0.0 0.0 0.0 0.0 32.8 7.5 0.7 2.2 0.5 5.7 5.5 4.4 1.1 1.2 3.7 3.5 1.0 0.1 0.4 3.3 1.9 4.4 1.4 0.6 1.4 0.0 0.0 0.1 4.1 5.7 13.6 2.8 1.8 9.2 8.9 5.8 2.6 2.9 3.7 2.1 4.4
0.0 0.0 0.0 0.0 0.0 0.0 4.1 0.0 0.0 1.4 5.9 3.8 6.9 6.4 2.9 1.7 0.7 0.3 0.1 0.3 1.1 1.0 0.3 0.0 0.0 0.0 0.2 0.0 0.7 1.1 2.3 4.2 6.4 13.1 2.8 1.6 7.9 9.9 5.5 2.4 1.4 0.9 1.7 2.1
0.0 0.0 0.0 0.0 0.0 0.0 0.0 0.0 0.0 7.7 14.0 3.7 1.5 0.7 0.0 0.7 0.1 1.5 0.0 0.0 1.2 0.0 0.0 0.0 0.0 0.1 0.0 0.0 0.0 0.0 1.7 3.1 8.0 12.4 3.7 22.1 9.0 2.2 1.9 1.9 1.4 0.7 0.8 1.5
0.0 0.0 0.0 0.0 0.0 0.0 0.0 0.0 0.0 5.8 9.9 1.1 0.6 0.2 0.0 0.0 0.0 1.2 0.0 0.0 0.0 0.0 0.0 5.2 4.5 0.5 0.1 0.0 0.0 0.3 0.2 2.7 13.7 15.0 5.5 3.7 1.8 1.0 2.2 1.9 2.3 1.3 2.9 1.0
0.0 0.0 0.0 0.0 0.0 0.0 0.0 0.0 0.0 1.0 8.7 1.9 0.0 0.7 0.1 2.6 2.6 2.8 0.8 0.0 0.0 0.0 3.9 8.2 11.2 3.6 0.7 0.3 0.3 0.1 0.4 1.1 12.9 13.9 18.2 9.7 0.7 0.1 0.0 0.0 2.6 1.5 4.2 3.7
0.0 0.0 0.0 0.0 0.0 0.0 0.0 0.0 0.0 0.0 11.5 0.5 0.0 0.9 1.0 0.0 1.7 3.3 1.8 1.4 0.8 0.2 6.9 12.9 7.0 3.4 2.1 4.2 1.7 0.7 2.2 5.0 18.8 16.1 25.4 3.7 0.2 0.6 0.4 7.5 8.2 4.0 2.8 2.5
0.0 0.0 0.0 0.0 0.0 0.0 0.0 0.0 0.0 0.0 8.1 0.0 0.0 0.0 0.2 0.4 1.1 5.3 2.9 4.3 3.6 5.8 14.0 9.2 6.3 2.7 0.4 0.9 0.0 0.3 1.2 8.4 8.0 9.7 23.8 13.8 0.3 1.2 6.0 5.7 3.7 1.5 1.2 0.7
0.0 0.0 0.0 0.0 0.0 0.0 0.0 0.0 0.0 0.0 0.6 0.5 0.0 0.0 0.0 0.0 0.0 0.8 2.6 1.3 0.6 1.8 7.2 6.8 3.9 4.2 1.8 1.3 5.8 0.2 5.5 3.6 6.9 5.3 4.4 1.6 1.1 4.2 2.0 2.0 4.6 2.0 0.9 0.4
0.0 0.0 0.0 0.0 0.0 0.0 0.0 0.0 0.0 0.0 4.4 7.0 3.3 2.8 0.0 0.0 0.0 0.0 1.9 0.1 0.5 1.7 0.1 4.6 5.3 6.1 0.3 4.3 1.9 2.2 1.4 0.0 4.4 3.7 3.4 3.8 1.8 0.3 0.2 0.5 1.2 0.7 0.6 0.5
0.0 0.0 0.0 0.0 0.0 0.0 0.0 0.0 0.0 0.0 0.5 19.7 10.5 0.0 0.7 0.0 0.0 0.0 0.0 0.0 0.0 0.0 0.0 4.0 3.5 3.5 0.0 2.5 2.4 2.4 2.0 2.8 8.3 10.9 5.1 2.5 0.8 0.9 0.9 0.9 0.5 0.3 1.2 1.6
0.0 0.0 0.0 0.0 0.0 0.0 0.0 0.0 0.0 0.0 0.7 18.2 8.3 0.7 0.0 0.0 0.0 0.0 0.0 0.0 0.0 0.0 3.2 5.0 3.8 0.4 0.6 1.6 2.1 3.1 0.7 4.4 13.0 16.8 6.8 5.9 3.5 1.5 1.1 1.4 2.1 1.3 0.5 0.0
0.0 0.0 0.0 0.0 0.0 0.0 0.0 23.9 0.0 0.0 0.0 9.5 14.4 2.1 2.0 0.0 0.0 0.0 0.0 0.0 0.0 0.2 2.1 3.1 1.3 0.0 0.7 10.4 7.7 1.9 1.0 0.9 2.1 6.3 4.7 5.3 4.0 2.5 1.6 1.4 0.8 0.0 0.0 0.0
0.0 0.0 0.0 0.0 0.0 0.0 0.4 2.4 0.0 0.0 0.0 10.1 16.8 3.0 1.1 0.5 0.7 2.1 0.0 0.6 0.3 0.2 2.3 3.4 1.4 0.7 2.4 11.9 8.9 3.4 2.0 2.2 2.5 2.6 3.4 3.8 1.7 1.4 0.4 0.0 0.0 0.0 0.0 0.0
0.0 0.0 0.0 0.0 0.0 0.0 0.0 0.0 0.0 0.0 0.0 1.7 14.9 9.2 1.9 0.0 2.5 6.4 1.1 2.7 2.8 4.1 2.9 2.4 1.4 1.5 2.5 8.3 0.5 0.0 0.2 0.4 1.3 1.2 0.4 1.0 0.5 0.0 0.0 0.0 0.0 0.0 0.0 0.1
0.0 0.0 0.0 0.0 0.0 3.6 0.0 0.0 0.0 0.0 0.8 11.3 5.8 6.5 13.7 0.0 0.9 2.4 5.7 3.6 14.8 0.8 5.4 1.2 1.7 5.4 12.6 5.1 0.6 0.1 0.3 0.7 0.4 0.0 0.1 0.0 0.3 0.0 0.0 0.0 0.0 0.2 1.9 1.2
0.0 0.0 4.2 56.7 1.5 0.0 0.0 0.0 7.7 10.8 4.2 2.1 4.4 0.7 4.0 0.1 3.2 8.0 9.1 7.2 11.2 12.9 2.8 0.2 5.6 7.7 4.1 1.2 0.2 0.4 0.5 0.3 0.0 0.0 0.0 0.0 0.3 0.4 0.3 0.9 1.2 2.0 2.1 1.2
0.0 23.8 26.7 0.0 0.0 0.0 5.2 35.6 28.6 18.1 14.6 1.8 0.9 0.3 7.5 1.7 9.2 6.9 1.7 9.9 7.7 14.4 10.2 8.2 10.9 13.7 10.6 2.0 0.8 0.1 0.0 0.0 0.0 0.0 0.0 0.2 0.5 1.1 2.5 1.8 0.3 0.5 1.1 1.9
0.0 0.0 0.0 0.6 6.6 18.4 30.6 23.5 9.6 3.3 3.6 1.1 0.9 1.2 2.5 6.3 1.7 8.7 8.1 10.8 10.6 11.8 5.3 13.2 15.0 9.5 1.4 0.3 0.5 0.3 0.2 0.1 0.1 0.3 0.4 0.5 1.2 1.3 1.9 1.8 2.3 2.5 2.5 3.4
0.0 3.8 13.9 15.3 25.6 35.3 22.5 16.3 8.3 6.5 5.1 2.4 2.8 4.9 2.4 4.4 4.7 12.8 6.9 9.2 14.7 4.5 18.2 13.6 10.5 6.0 3.0 2.7 3.1 1.3 0.6 0.2 0.3 0.6 0.5 0.7 1.2 1.2 1.5 2.3 2.7 2.8 3.6 5.3
9.9 21.0 28.7 24.8 23.2 12.9 12.4 6.6 5.2 4.9 4.0 2.3 3.6 1.8 2.2 2.0 9.6 12.2 14.6 12.9 10.4 20.6 13.6 16.6 12.8 8.1 5.8 3.5 2.7 2.0 3.6 2.4 2.9 3.3 3.5 3.9 4.7 4.9 6.4 7.6 8.8 8.5 11.9 15.4
13.8 12.1 18.7 14.2 11.2 9.2 7.8 5.4 3.4 2.2 2.2 2.4 3.3 3.8 3.8 9.9 14.2 9.7 8.8 11.3 12.6 9.6 14.9 13.8 9.7 6.9 5.4 5.1 4.9 5.5 6.4 6.6 7.2 7.4 7.6 8.9 9.0 8.3 11.0 11.7 11.6 10.1 11.1 11.7
6.0 7.4 12.2 8.4 7.1 9.8 7.3 6.9 6.8 3.4 4.4 3.7 6.9 12.5 14.6 15.4 8.7 6.4 7.5 6.4 11.5 15.5 12.1 7.0 5.8 6.3 6.3 7.0 7.4 8.3 8.4 7.9 7.9 7.9 7.4 7.8 8.6 8.1 9.2 9.4 9.7 9.7 8.2 8.5
5.3 10.7 9.6 9.8 8.1 10.6 9.9 7.7 5.9 3.1 3.5 10.4 9.7 11.1 10.3 5.4 7.9 10.2 9.8 18.8 19.6 11.9 11.3 10.4 8.6 9.0 10.1 9.5 9.5 9.9 9.5 8.9 8.4 8.1 7.7 8.2 8.0 6.1 4.3 6.3 9.0 6.7 6.9 6.5

GFSNW_prec_kuchsnow_243.txt.gz
Snowfall_Accumulation
0.0 0.0 0.0 0.0 0.0 0.0 0.0 0.0 11.6 0.0 0.0 6.2 4.6 3.8 0.1 0.0 0.1 0.0 0.6 1.2 2.5 6.3 3.6 4.8 4.4 1.3 1.5 0.0 0.0 0.0 0.0 5.0 6.9 0.6 0.0 0.0 0.0 0.0 0.1 10.0 5.8 5.9 16.7 21.7
0.0 0.0 0.0 0.0 0.0 0.0 0.0 1.9 1.7 0.0 0.0 12.6 7.4 0.8 0.0 0.0 0.0 0.0 1.1 1.6 1.8 3.0 6.9 10.7 8.0 1.6 0.0 0.0 0.0 0.0 0.0 4.0 3.9 2.0 0.0 0.0 0.0 0.0 0.0 1.0 3.8 11.4 25.9 18.6
0.0 0.0 0.0 0.0 0.0 0.0 0.0 6.5 27.4 0.0 0.0 1.0 1.3 2.8 2.5 1.6 0.0 0.0 0.1 1.1 2.4 3.8 5.1 3.8 7.1 1.7 0.0 0.0 0.0 0.0 0.0 1.5 4.5 9.3 5.6 2.0 1.7 0.2 0.2 2.5 18.2 12.0 14.8 11.9
0.0 0.0 0.0 0.0 0.0 0.0 0.0 9.0 14.1 0.2 23.4 8.6 2.5 0.9 1.8 1.8 1.9 0.0 0.3 3.7 1.5 2.9 10.2 4.8 4.4 1.7 0.0 0.0 0.0 0.0 0.1 5.5 4.4 2.8 3.2 1.6 4.9 4.4 4.0 4.8 4.5 13.9 12.7 6.1
0.0 0.0 0.0 0.0 0.0 0.0 0.0 32.8 7.5 0.7 2.2 0.5 5.7 5.5 4.4 1.1 1.2 3.7 3.5 1.0 0.1 0.4 3.3 1.9 4.4 1.4 0.6 1.4 0.0 0.0 0.1 4.1 5.7 13.6 2.8 1.8 9.2 8.9 5.8 2.6 2.9 3.7 2.1 4.4
0.0 0.0 0.0 0.0 0.0 0.0 4.1 0.0 0.0 1.4 5.9 3.8 6.9 6.4 2.9 1.7 0.7 0.3 0.1 0.3 1.1 1.0 0.3 0.0 0.0 0.0 0.2 0.0 0.7 1.1 2.3 4.2 6.4 13.1 2.8 1.6 7.9 9.9 5.5 2.4 1.4 0.9 1.7 2.1
0.0 0.0 0.0 0.0 0.0 0.0 0.0 0.0 0.0 7.7 14.0 3.7 1.5 0.7 0.0 0.7 0.1 1.5 0.0 0.0 1.2 0.0 0.0 0.0 0.0 0.1 0.0 0.0 0.0 0.0 1.7 3.1 8.0 12.4 3.7 22.5 9.0 2.2 1.9 1.9 1.4 0.7 0.8 1.5
0.0 0.0 0.0 0.0 0.0 0.0 0.0 0.0 0.0 5.8 9.9 1.1 0.6 0.2 0.0 0.0 0.0 1.2 0.0 0.0 0.0 0.0 0.0 5.2 4.5 0.5 0.1 0.0 0.0 0.3 0.2 2.7 13.7 15.1 5.5 3.7 1.8 1.0 2.2 1.9 2.3 1.3 2.9 1.0
0.0 0.0 0.0 0.0 0.0 0.0 0.0 0.0 0.0 1.0 8.7 1.9 0.0 0.7 0.1 2.6 2.6 2.8 0.8 0.0 0.0 0.0 3.9 8.2 11.2 3.6 0.7 0.3 0.3 0.1 0.4 1.1 12.9 13.9 18.8 9.9 0.7 0.1 0.0 0.0 2.6 1.5 4.2 3.7
0.0 0.0 0.0 0.0 0.0 0.0 0.0 0.0 0.0 0.0 11.5 0.5 0.0 0.9 1.0 0.0 1.7 3.3 1.8 1.4 0.8 0.2 6.9 12.9 7.1 3.4 2.1 4.2 1.7 0.7 2.2 5.0 18.9 16.1 26.1 3.7 0.2 0.6 0.4 7.6 8.2 4.0 2.8 2.5
0.0 0.0 0.0 0.0 0.0 0.0 0.0 0.0 0.0 0.0 8.1 0.0 0.0 0.0 0.2 0.4 1.1 5.3 2.9 4.3 3.6 5.8 14.0 9.2 6.3 2.7 0.4 0.9 0.0 0.3 1.2 8.4 8.0 9.7 24.5 14.3 0.3 1.2 6.0 5.7 3.7 1.5 1.2 0.7
0.0 0.0 0.0 0.0 0.0 0.0 0.0 0.0 0.0 0.0 0.6 0.5 0.0 0.0 0.0 0.0 0.0 0.8 2.6 1.3 0.6 1.8 7.2 6.8 3.9 4.2 1.8 1.3 5.8 0.2 5.5 3.6 6.9 5.3 4.4 1.6 1.1 4.2 2.0 2.0 4.6 2.0 0.9 0.4
0.0 0.0 0.0 0.0 0.0 0.0 0.0 0.0 0.0 0.0 4.4 7.0 3.3 2.8 0.0 0.0 0.0 0.0 1.9 0.1 0.5 1.7 0.1 4.6 5.3 6.1 0.3 4.3 1.9 2.2 1.4 0.0 4.4 3.7 3.4 3.8 1.8 0.3 0.2 0.5 1.2 0.7 0.6 0.5
0.0 0.0 0.0 0.0 0.0 0.0 0.0 0.0 0.0 0.0 0.5 20.2 10.6 0.0 0.7 0.0 0.0 0.0 0.0 0.0 0.0 0.0 0.0 4.0 3.5 3.5 0.0 2.5 2.4 2.4 2.0 2.8 8.3 10.9 5.1 2.5 0.8 0.9 0.9 0.9 0.5 0.3 1.2 1.6
0.0 0.0 0.0 0.0 0.0 0.0 0.0 0.0 0.0 0.0 0.7 18.2 8.4 0.7 0.0 0.0 0.0 0.0 0.0 0.0 0.0 0.0 3.2 5.0 3.8 0.4 0.6 1.6 2.1 3.2 0.7 4.4 13.0 16.8 6.8 5.9 3.5 1.6 1.1 1.4 2.1 1.3 0.5 0.0
0.0 0.0 0.0 0.0 0.0 0.0 0.0 23.9 0.0 0.0 0.0 9.5 14.6 2.1 2.0 0.0 0.0 0.0 0.0 0.0 0.0 0.2 2.1 3.1 1.3 0.0 0.7 10.4 7.7 1.9 1.0 0.9 2.1 6.3 4.7 5.3 4.2 2.5 1.6 1.4 0.8 0.0 0.0 0.0
0.0 0.0 0.0 0.0 0.0 0.0 0.4 2.4 0.0 0.0 0.0 10.1 19.3 3.6 1.1 0.5 0.7 2.1 0.0 0.6 0.3 0.2 2.3 3.4 1.4 0.7 2.4 12.1 8.9 3.4 2.0 2.2 2.5 2.6 3.4 4.3 1.8 1.5 0.4 0.0 0.0 0.0 0.0 0.0
0.0 0.0 0.0 0.0 0.0 0.0 0.0 0.0 0.0 0.0 0.0 1.7 17.5 10.2 1.9 0.0 2.5 6.4 1.1 2.7 2.8 4.1 2.9 2.4 1.4 1.5 2.5 8.3 0.5 0.0 0.2 0.4 1.3 1.2 0.4 1.0 0.5 0.0 0.0 0.0 0.0 0.0 0.0 0.1
0.0 0.0 0.0 0.0 0.0 3.6 0.0 0.0 0.0 0.0 0.8 13.6 6.8 6.5 13.8 0.0 0.9 2.4 5.7 3.6 14.8 0.8 5.4 1.2 1.7 5.4 12.6 5.1 0.6 0.1 0.3 0.7 0.4 0.0 0.1 0.0 0.3 0.0 0.0 0.0 0.0 0.2 1.9 1.2
0.0 0.0 4.2 63.6 1.5 0.0 0.0 0.0 7.7 10.8 4.2 2.8 4.5 0.7 4.0 0.1 3.2 8.0 9.1 7.2 11.2 13.0 2.8 0.2 5.6 7.7 4.1 1.2 0.2 0.4 0.5 0.3 0.0 0.0 0.0 0.0 0.3 0.4 0.3 0.9 1.2 2.0 2.1 1.2
0.0 33.4 34.8 0.0 0.0 0.0 5.2 43.1 36.6 24.3 19.3 2.8 0.9 0.3 7.5 1.7 9.2 6.9 1.7 10.0 7.7 14.7 10.2 8.2 11.0 13.7 10.6 2.0 0.8 0.1 0.0 0.0 0.0 0.0 0.0 0.2 0.5 1.1 2.5 1.8 0.3 0.5 1.1 1.9
0.0 0.0 0.0 0.6 6.6 22.0 36.9 29.2 13.8 5.2 4.2 1.1 0.9 1.2 2.5 6.3 1.7 8.7 8.1 10.8 10.8 11.9 5.3 13.7 15.1 9.5 1.4 0.3 0.5 0.3 0.2 0.1 0.1 0.3 0.4 0.5 1.2 1.3 1.9 1.8 2.3 2.5 2.5 3.4
0.0 3.8 19.0 18.2 29.2 40.1 27.0 19.6 10.5 6.7 5.1 2.5 2.8 4.9 2.4 4.4 4.7 12.8 6.9 9.2 14.7 4.5 18.5 13.6 10.5 6.0 3.0 2.7 3.1 1.3 0.6 0.2 0.3 0.6 0.5 0.7 1.2 1.2 1.5 2.3 2.7 2.8 3.6 5.3
11.9 24.9 32.9 26.7 23.9 13.4 12.4 6.6 5.2 4.9 4.0 2.3 3.6 1.8 2.2 2.0 9.6 12.2 14.6 12.9 10.5 21.1 13.8 16.6 12.8 8.1 5.8 3.5 2.7 2.0 3.6 2.4 2.9 3.3 3.5 3.9 4.7 4.9 6.4 7.6 8.8 8.5 11.9 15.4
15.3 12.7 19.1 14.4 11.2 9.2 7.8 5.4 3.4 2.2 2.2 2.4 3.3 3.8 3.8 9.9 14.2 9.7 8.8 11.3 12.6 9.6 14.9 13.8 9.7 6.9 5.4 5.1 4.9 5.5 6.4 6.6 7.2 7.4 7.6 8.9 9.0 8.3 11.0 11.7 11.6 10.1 11.1 11.7
6.2 7.4 12.2 8.4 7.1 9.8 7.3 6.9 6.8 3.4 4.4 3.7 6.9 12.5 14.6 15.4 8.7 6.5 7.5 6.4 11.5 15.5 12.1 7.0 5.8 6.3 6.3 7.0 7.4 8.3 8.4 7.9 7.9 7.9 7.4 7.8 8.6 8.1 9.2 9.4 9.7 9.7 8.2 8.5
5.3 10.7 9.6 9.8 8.1 10.6 9.9 7.7 5.9 3.1 3.5 10.4 9.7 11.1 10.3 5.4 8.0 10.3 9.8 18.8 19.6 11.9 11.3 10.4 8.6 9.0 10.1 9.5 9.5 9.9 9.5 8.9 8.4 8.1 7.7 8.2 8.0 6.1 4.3 6.3 9.0 6.7 6.9 6.5

GFSNW_prec_kuchsnow_249.txt.gz
Snowfall_Accumulation
0.0 0.0 0.0 0.0 0.0 0.0 0.0 0.0 11.6 0.0 0.0 6.2 4.6 3.8 0.1 0.0 0.1 0.0 0.6 1.2 2.5 6.3 3.6 4.8 4.4 1.3 1.5 0.0 0.0 0.0 0.0 5.0 6.9 0.6 0.0 0.0 0.0 0.0 0.1 10.0 5.8 5.9 16.7 21.7
0.0 0.0 0.0 0.0 0.0 0.0 0.0 1.9 1.7 0.0 0.0 12.6 7.4 0.8 0.0 0.0 0.0 0.0 1.1 1.6 1.8 3.0 6.9 10.7 8.0 1.6 0.0 0.0 0.0 0.0 0.0 4.0 3.9 2.0 0.0 0.0 0.0 0.0 0.0 1.0 3.8 11.4 25.9 18.6
0.0 0.0 0.0 0.0 0.0 0.0 0.0 6.5 27.4 0.0 0.0 1.0 1.3 2.8 2.5 1.6 0.0 0.0 0.1 1.1 2.4 3.8 5.1 3.8 7.1 1.7 0.0 0.0 0.0 0.0 0.0 1.5 4.5 9.3 5.6 2.0 1.7 0.2 0.2 2.5 18.2 12.0 14.8 11.9
0.0 0.0 0.0 0.0 0.0 0.0 0.0 9.0 14.1 0.2 23.4 8.6 2.5 0.9 1.8 1.8 1.9 0.0 0.3 3.7 1.5 2.9 10.2 4.8 4.4 1.7 0.0 0.0 0.0 0.0 0.1 5.5 4.4 2.8 3.2 1.6 4.9 4.4 4.0 4.8 4.5 13.9 12.7 6.1
0.0 0.0 0.0 0.0 0.0 0.0 0.0 32.8 7.5 0.7 2.2 0.5 5.7 5.5 4.4 1.1 1.2 3.7 3.5 1.0 0.1 0.4 3.3 1.9 4.4 1.4 0.6 1.4 0.0 0.0 0.1 4.1 5.7 13.6 2.8 1.8 9.2 8.9 5.8 2.6 2.9 3.7 2.1 4.4
0.0 0.0 0.0 0.0 0.0 0.0 4.1 0.0 0.0 1.4 5.9 3.8 6.9 6.4 2.9 1.7 0.7 0.3 0.1 0.3 1.1 1.0 0.3 0.0 0.0 0.0 0.2 0.0 0.7 1.1 2.3 4.2 6.4 13.1 2.8 1.6 7.9 9.9 5.5 2.4 1.4 0.9 1.7 2.1
0.0 0.0 0.0 0.0 0.0 0.0 0.0 0.0 0.0 7.7 14.0 3.7 1.5 0.7 0.0 0.7 0.1 1.5 0.0 0.0 1.2 0.0 0.0 0.0 0.0 0.1 0.0 0.0 0.0 0.0 1.7 3.1 8.0 12.4 3.7 22.5 9.0 2.2 1.9 1.9 1.4 0.7 0.8 1.5
0.0 0.0 0.0 0.0 0.0 0.0 0.0 0.0 0.0 5.8 9.9 1.1 0.6 0.2 0.0 0.0 0.0 1.2 0.0 0.0 0.0 0.0 0.0 5.2 4.5 0.5 0.1 0.0 0.0 0.3 0.2 2.7 13.7 15.1 5.5 3.7 1.8 1.0 2.2 1.9 2.3 1.3 2.9 1.0
0.0 0.0 0.0 0.0 0.0 0.0 0.0 0.0 0.0 1.0 8.7 1.9 0.0 0.7 0.1 2.6 2.6 2.8 0.8 0.0 0.0 0.0 3.9 8.2 11.3 3.6 0.7 0.3 0.3 0.1 0.4 1.1 12.9 13.9 19.0 9.9 0.7 0.1 0.0 0.0 2.6 1.5 4.2 3.7
0.0 0.0 0.0 0.0 0.0 0.0 0.0 0.0 0.0 0.0 11.5 0.5 0.0 0.9 1.0 0.0 1.7 3.3 1.8 1.4 0.8 0.2 6.9 12.9 7.1 3.4 2.1 4.2 1.7 0.7 2.2 5.0 18.9 16.1 26.3 3.7 0.2 0.6 0.4 7.6 8.2 4.0 2.8 2.5
0.0 0.0 0.0 0.0 0.0 0.0 0.0 0.0 0.0 0.0 8.1 0.0 0.0 0.0 0.2 0.4 1.1 5.3 2.9 4.3 3.6 5.8 14.0 9.2 6.3 2.7 0.4 0.9 0.0 0.3 1.2 8.4 8.0 9.7 24.6 14.3 0.3 1.2 6.0 5.7 3.7 1.5 1.2 0.7
0.0 0.0 0.0 0.0 0.0 0.0 0.0 0.0 0.0 0.0 0.6 0.5 0.0 0.0 0.0 0.0 0.0 0.8 2.6 1.3 0.6 1.8 7.2 6.8 3.9 4.2 1.8 1.3 5.8 0.2 5.5 3.6 6.9 5.3 4.4 1.6 1.1 4.2 2.0 2.0 4.6 2.0 0.9 0.4
0.0 0.0 0.0 0.0 0.0 0.0 0.0 0.0 0.0 0.0 4.4 7.0 3.3 2.8 0.0 0.0 0.0 0.0 1.9 0.1 0.5 1.7 0.1 4.6 5.3 6.1 0.3 4.3 1.9 2.2 1.4 0.0 4.4 3.7 3.4 3.8 1.8 0.3 0.2 0.5 1.2 0.7 0.6 0.5
0.0 0.0 0.0 0.0 0.0 0.0 0.0 0.0 0.0 0.0 0.5 20.7 10.6 0.0 0.7 0.0 0.0 0.0 0.0 0.0 0.0 0.0 0.0 4.0 3.5 3.5 0.0 2.5 2.4 2.4 2.0 2.8 8.3 10.9 5.1 2.5 0.8 0.9 0.9 0.9 0.5 0.3 1.2 1.6
0.0 0.0 0.0 0.0 0.0 0.0 0.0 0.0 0.0 0.0 0.7 18.8 8.4 0.7 0.0 0.0 0.0 0.0 0.0 0.0 0.0 0.0 3.2 5.0 3.8 0.4 0.6 1.6 2.1 3.2 0.7 4.4 13.0 16.8 6.8 5.9 3.5 1.6 1.1 1.4 2.1 1.3 0.5 0.0
0.0 0.0 0.0 0.0 0.0 0.0 0.0 23.9 0.0 0.0 0.0 9.5 15.4 2.1 2.0 0.0 0.0 0.0 0.0 0.0 0.0 0.2 2.1 3.1 1.3 0.0 0.7 10.4 7.7 1.9 1.0 0.9 2.1 6.3 4.7 5.3 4.2 2.5 1.6 1.4 0.8 0.0 0.0 0.0
0.0 0.0 0.0 0.0 0.0 0.0 0.4 2.4 0.0 0.0 0.0 10.1 20.6 4.2 1.1 0.5 0.7 2.1 0.0 0.6 0.3 0.2 2.3 3.4 1.4 0.7 2.4 12.1 8.9 3.4 2.0 2.2 2.5 2.6 3.4 4.3 1.8 1.5 0.4 0.0 0.0 0.0 0.0 0.0
0.0 0.0 0.0 0.0 0.0 0.0 0.0 0.0 0.0 0.0 0.0 1.7 18.9 11.3 2.1 0.0 2.5 6.4 1.1 2.7 2.8 4.1 2.9 2.4 1.4 1.5 2.5 8.3 0.5 0.0 0.2 0.4 1.3 1.2 0.4 1.0 0.5 0.0 0.0 0.0 0.0 0.0 0.0 0.1
0.0 0.0 0.0 0.0 0.0 3.6 0.0 0.0 0.0 0.0 0.8 15.2 7.4 6.5 14.1 0.0 0.9 2.4 5.7 3.6 14.8 0.8 5.4 1.2 1.7 5.4 12.6 5.1 0.6 0.1 0.3 0.7 0.4 0.0 0.1 0.0 0.3 0.0 0.0 0.0 0.0 0.2 1.9 1.2
0.0 0.0 4.2 63.6 1.5 0.0 0.0 0.0 7.7 10.8 4.2 2.8 4.5 0.7 4.0 0.1 3.2 8.0 9.1 7.2 11.2 13.1 2.8 0.2 5.6 7.7 4.1 1.2 0.2 0.4 0.5 0.3 0.0 0.0 0.0 0.0 0.3 0.4 0.3 0.9 1.2 2.0 2.1 1.2
0.0 33.4 39.5 0.0 0.0 0.0 5.2 46.3 40.9 31.0 24.1 3.2 0.9 0.3 7.6 1.7 9.2 7.0 1.7 10.0 7.7 14.7 10.2 8.2 11.0 13.7 10.6 2.0 0.8 0.1 0.0 0.0 0.0 0.0 0.0 0.2 0.5 1.1 2.5 1.8 0.3 0.5 1.1 1.9
0.0 0.0 0.0 0.6 6.6 23.8 41.5 31.7 15.8 6.6 6.1 1.4 0.9 1.2 2.5 6.3 1.7 8.7 8.1 10.8 10.8 11.9 5.3 14.0 15.1 9.5 1.4 0.3 0.5 0.3 0.2 0.1 0.1 0.3 0.4 0.5 1.2 1.3 1.9 1.8 2.3 2.5 2.5 3.4
0.0 3.8 22.2 21.6 31.2 43.8 31.1 21.2 12.3 7.3 5.2 2.5 2.8 4.9 2.4 4.4 4.7 12.8 6.9 9.2 14.8 4.5 18.6 13.6 10.5 6.0 3.0 2.7 3.1 1.3 0.6 0.2 0.3 0.6 0.5 0.7 1.2 1.2 1.5 2.3 2.7 2.8 3.6 5.3
14.7 27.5 38.1 28.7 24.4 13.6 12.4 6.6 5.2 4.9 4.0 2.3 3.6 1.8 2.2 2.0 9.6 12.2 14.6 12.9 10.5 21.2 13.8 16.6 12.8 8.1 5.8 3.5 2.7 2.0 3.6 2.4 2.9 3.3 3.5 3.9 4.7 4.9 6.4 7.6 8.8 8.5 11.9 15.4
17.2 13.4 20.2 14.9 11.2 9.2 7.8 5.4 3.4 2.2 2.2 2.4 3.3 3.8 3.8 9.9 14.3 9.7 8.8 11.6 12.8 9.6 14.9 13.8 9.7 6.9 5.4 5.1 4.9 5.5 6.4 6.6 7.2 7.4 7.6 8.9 9.0 8.3 11.0 11.7 11.6 10.1 11.1 11.7
7.1 7.4 12.3 8.4 7.1 9.8 7.3 6.9 6.8 3.4 4.4 3.7 6.9 12.7 14.9 15.6 8.7 6.5 7.5 6.4 11.5 15.5 12.1 7.0 5.8 6.3 6.3 7.0 7.4 8.3 8.4 7.9 7.9 7.9 7.4 7.8 8.6 8.1 9.2 9.4 9.7 9.7 8.2 8.5
5.7 11.0 9.6 9.8 8.1 10.6 9.9 7.7 5.9 3.1 3.5 10.4 9.7 11.2 10.3 5.4 8.0 10.3 9.8 18.8 19.6 11.9 11.3 10.4 8.6 9.0 10.1 9.5 9.5 9.9 9.5 8.9 8.4 8.1 7.7 8.2 8.0 6.1 4.3 6.3 9.0 6.7 6.9 6.5